Time,TemperatureF,DewpointF,PressureIn,WindDirection,WindDirectionDegrees,WindSpeedMPH,WindSpeedGustMPH,Humidity,HourlyPrecipIn,Conditions,Clouds,dailyrainin,SoftwareType,DateUTC
2013-04-27 00:11:00,35.2,26.0,30.39,NNW,330,4.0,5.0,68,0.00,,,0.00,weatherlink.com 1.10,2013-04-27 04:11:00,
2013-04-27 00:26:00,35.0,26.0,30.38,NW,315,1.0,5.0,69,0.00,,,0.00,weatherlink.com 1.10,2013-04-27 04:26:00,
2013-04-27 00:41:00,33.8,26.0,30.39,North,5,2.0,3.0,72,0.00,,,0.00,weatherlink.com 1.10,2013-04-27 04:41:00,
2013-04-27 00:56:00,33.3,26.0,30.38,North,5,1.0,3.0,73,0.00,,,0.00,weatherlink.com 1.10,2013-04-27 04:56:00,
2013-04-27 01:11:00,33.1,26.0,30.39,North,5,1.0,3.0,74,0.00,,,0.00,weatherlink.com 1.10,2013-04-27 05:11:00,
2013-04-27 01:26:00,32.6,26.0,30.39,North,5,1.0,3.0,75,0.00,,,0.00,weatherlink.com 1.10,2013-04-27 05:26:00,
2013-04-27 01:41:00,31.8,25.0,30.39,North,5,1.0,2.0,76,0.00,,,0.00,weatherlink.com 1.10,2013-04-27 05:41:00,
2013-04-27 01:56:00,31.8,25.0,30.38,North,5,2.0,3.0,77,0.00,,,0.00,weatherlink.com 1.10,2013-04-27 05:56:00,
2013-04-27 02:11:00,31.5,25.0,30.37,North,5,2.0,2.0,77,0.00,,,0.00,weatherlink.com 1.10,2013-04-27 06:11:00,
2013-04-27 02:26:00,31.2,25.0,30.36,North,5,3.0,3.0,78,0.00,,,0.00,weatherlink.com 1.10,2013-04-27 06:26:00,
2013-04-27 02:41:00,31.3,25.0,30.36,North,5,1.0,3.0,78,0.00,,,0.00,weatherlink.com 1.10,2013-04-27 06:41:00,
2013-04-27 02:56:00,31.6,25.0,30.36,North,5,2.0,3.0,76,0.00,,,0.00,weatherlink.com 1.10,2013-04-27 06:56:00,
2013-04-27 03:11:00,31.3,25.0,30.36,North,5,2.0,4.0,77,0.00,,,0.00,weatherlink.com 1.10,2013-04-27 07:11:00,
2013-04-27 03:26:00,30.3,25.0,30.36,North,5,2.0,4.0,80,0.00,,,0.00,weatherlink.com 1.10,2013-04-27 07:26:00,
2013-04-27 03:41:00,30.2,25.0,30.36,North,5,2.0,4.0,80,0.00,,,0.00,weatherlink.com 1.10,2013-04-27 07:41:00,
2013-04-27 03:56:00,30.6,25.0,30.36,NNE,22,1.0,4.0,79,0.00,,,0.00,weatherlink.com 1.10,2013-04-27 07:56:00,
2013-04-27 04:11:00,30.6,25.0,30.36,NNE,22,0.0,4.0,79,0.00,,,0.00,weatherlink.com 1.10,2013-04-27 08:11:00,
2013-04-27 04:26:00,30.7,25.0,30.36,NNE,32,2.0,3.0,78,0.00,,,0.00,weatherlink.com 1.10,2013-04-27 08:26:00,
2013-04-27 04:42:00,30.6,25.0,30.36,NNE,17,1.0,4.0,79,0.00,,,0.00,weatherlink.com 1.10,2013-04-27 08:42:00,
2013-04-27 04:57:00,30.5,25.0,30.36,North,360,2.0,4.0,80,0.00,,,0.00,weatherlink.com 1.10,2013-04-27 08:57:00,
2013-04-27 05:12:00,30.5,25.0,30.36,North,5,2.0,4.0,80,0.00,,,0.00,weatherlink.com 1.10,2013-04-27 09:12:00,
2013-04-27 05:27:00,30.6,25.0,30.36,North,5,4.0,4.0,79,0.00,,,0.00,weatherlink.com 1.10,2013-04-27 09:27:00,
2013-04-27 05:42:00,30.8,25.0,30.36,North,5,3.0,4.0,79,0.00,,,0.00,weatherlink.com 1.10,2013-04-27 09:42:00,
2013-04-27 05:57:00,31.6,25.0,30.36,North,5,3.0,4.0,77,0.00,,,0.00,weatherlink.com 1.10,2013-04-27 09:57:00,
2013-04-27 06:12:00,31.7,25.0,30.36,North,5,1.0,3.0,76,0.00,,,0.00,weatherlink.com 1.10,2013-04-27 10:12:00,
2013-04-27 06:27:00,31.8,25.0,30.36,North,5,2.0,3.0,77,0.00,,,0.00,weatherlink.com 1.10,2013-04-27 10:27:00,
2013-04-27 06:42:00,32.1,26.0,30.37,North,5,3.0,4.0,77,0.00,,,0.00,weatherlink.com 1.10,2013-04-27 10:42:00,
2013-04-27 06:57:00,32.4,26.0,30.37,North,5,3.0,4.0,76,0.00,,,0.00,weatherlink.com 1.10,2013-04-27 10:57:00,
2013-04-27 07:12:00,33.5,26.0,30.37,North,9,3.0,4.0,74,0.00,,,0.00,weatherlink.com 1.10,2013-04-27 11:12:00,
2013-04-27 07:27:00,34.6,27.0,30.37,North,9,3.0,4.0,73,0.00,,,0.00,weatherlink.com 1.10,2013-04-27 11:27:00,
2013-04-27 07:42:00,36.3,27.0,30.37,NNE,13,3.0,5.0,70,0.00,,,0.00,weatherlink.com 1.10,2013-04-27 11:42:00,
2013-04-27 07:57:00,37.3,27.0,30.38,North,5,5.0,6.0,66,0.00,,,0.00,weatherlink.com 1.10,2013-04-27 11:57:00,
2013-04-27 08:12:00,38.4,27.0,30.38,North,9,2.0,4.0,65,0.00,,,0.00,weatherlink.com 1.10,2013-04-27 12:12:00,
2013-04-27 08:27:00,38.6,27.0,30.38,NNE,17,1.0,4.0,64,0.00,,,0.00,weatherlink.com 1.10,2013-04-27 12:27:00,
2013-04-27 08:42:00,39.6,29.0,30.38,NE,38,2.0,4.0,65,0.00,,,0.00,weatherlink.com 1.10,2013-04-27 12:42:00,
2013-04-27 08:57:00,41.3,29.0,30.38,NW,325,3.0,5.0,61,0.00,,,0.00,weatherlink.com 1.10,2013-04-27 12:57:00,
2013-04-27 09:12:00,43.2,28.0,30.38,NNW,347,5.0,5.0,56,0.00,,,0.00,weatherlink.com 1.10,2013-04-27 13:12:00,
2013-04-27 09:27:00,44.5,26.0,30.38,NNW,342,8.0,9.0,48,0.00,,,0.00,weatherlink.com 1.10,2013-04-27 13:27:00,
2013-04-27 09:42:00,45.6,24.0,30.38,NW,309,5.0,9.0,42,0.00,,,0.00,weatherlink.com 1.10,2013-04-27 13:42:00,
2013-04-27 09:57:00,46.1,23.0,30.38,WNW,302,3.0,11.0,41,0.00,,,0.00,weatherlink.com 1.10,2013-04-27 13:57:00,
2013-04-27 10:12:00,46.9,18.0,30.38,North,355,9.0,11.0,32,0.00,,,0.00,weatherlink.com 1.10,2013-04-27 14:12:00,
2013-04-27 10:27:00,47.4,17.0,30.38,NW,322,5.0,10.0,30,0.00,,,0.00,weatherlink.com 1.10,2013-04-27 14:27:00,
2013-04-27 10:42:00,48.5,18.0,30.38,NE,35,3.0,10.0,30,0.00,,,0.00,weatherlink.com 1.10,2013-04-27 14:42:00,
2013-04-27 10:57:00,48.8,19.0,30.38,WSW,252,6.0,12.0,31,0.00,,,0.00,weatherlink.com 1.10,2013-04-27 14:57:00,
2013-04-27 11:12:00,49.5,20.0,30.37,NNW,327,7.0,12.0,31,0.00,,,0.00,weatherlink.com 1.10,2013-04-27 15:12:00,
2013-04-27 11:28:00,50.3,21.0,30.37,West,264,4.0,11.0,31,0.00,,,0.00,weatherlink.com 1.10,2013-04-27 15:28:00,
2013-04-27 11:43:00,51.4,20.0,30.37,SW,233,6.0,11.0,29,0.00,,,0.00,weatherlink.com 1.10,2013-04-27 15:43:00,
2013-04-27 11:58:00,52.1,20.0,30.36,North,349,7.0,10.0,28,0.00,,,0.00,weatherlink.com 1.10,2013-04-27 15:58:00,
2013-04-27 12:13:00,52.9,24.0,30.36,West,276,3.0,9.0,32,0.00,,,0.00,weatherlink.com 1.10,2013-04-27 16:13:00,
2013-04-27 12:28:00,53.4,22.0,30.35,NNW,331,5.0,8.0,29,0.00,,,0.00,weatherlink.com 1.10,2013-04-27 16:28:00,
2013-04-27 12:43:00,54.1,22.0,30.34,SW,225,3.0,11.0,29,0.00,,,0.00,weatherlink.com 1.10,2013-04-27 16:43:00,
2013-04-27 12:58:00,54.6,24.0,30.33,NW,304,6.0,10.0,30,0.00,,,0.00,weatherlink.com 1.10,2013-04-27 16:58:00,
2013-04-27 13:13:00,55.4,25.0,30.32,SW,223,4.0,8.0,31,0.00,,,0.00,weatherlink.com 1.10,2013-04-27 17:13:00,
2013-04-27 13:28:00,55.5,25.0,30.32,WNW,288,7.0,11.0,31,0.00,,,0.00,weatherlink.com 1.10,2013-04-27 17:28:00,
2013-04-27 13:43:00,56.1,25.0,30.32,NNE,21,5.0,10.0,30,0.00,,,0.00,weatherlink.com 1.10,2013-04-27 17:43:00,
2013-04-27 13:58:00,56.2,27.0,30.31,SSW,211,4.0,10.0,32,0.00,,,0.00,weatherlink.com 1.10,2013-04-27 17:58:00,
2013-04-27 14:13:00,56.7,27.0,30.30,SSE,163,1.0,8.0,32,0.00,,,0.00,weatherlink.com 1.10,2013-04-27 18:13:00,
2013-04-27 14:28:00,57.1,27.0,30.30,NNW,343,8.0,9.0,31,0.00,,,0.00,weatherlink.com 1.10,2013-04-27 18:28:00,
2013-04-27 14:43:00,57.9,27.0,30.30,WSW,250,4.0,12.0,31,0.00,,,0.00,weatherlink.com 1.10,2013-04-27 18:43:00,
2013-04-27 14:58:00,58.1,28.0,30.29,WNW,288,2.0,11.0,32,0.00,,,0.00,weatherlink.com 1.10,2013-04-27 18:58:00,
2013-04-27 15:13:00,59.0,28.0,30.28,NNW,337,3.0,10.0,31,0.00,,,0.00,weatherlink.com 1.10,2013-04-27 19:13:00,
2013-04-27 15:28:00,58.2,28.0,30.27,NNE,12,2.0,12.0,32,0.00,,,0.00,weatherlink.com 1.10,2013-04-27 19:28:00,
2013-04-27 15:43:00,58.8,30.0,30.27,NNW,340,6.0,10.0,34,0.00,,,0.00,weatherlink.com 1.10,2013-04-27 19:43:00,
2013-04-27 15:58:00,58.1,31.0,30.27,NNE,19,3.0,11.0,36,0.00,,,0.00,weatherlink.com 1.10,2013-04-27 19:58:00,
2013-04-27 16:13:00,57.9,29.0,30.26,ESE,119,0.0,7.0,33,0.00,,,0.00,weatherlink.com 1.10,2013-04-27 20:13:00,
2013-04-27 16:28:00,57.1,29.0,30.25,NE,38,2.0,5.0,34,0.00,,,0.00,weatherlink.com 1.10,2013-04-27 20:28:00,
2013-04-27 16:43:00,56.7,29.0,30.25,North,11,5.0,7.0,35,0.00,,,0.00,weatherlink.com 1.10,2013-04-27 20:43:00,
2013-04-27 16:58:00,56.5,30.0,30.25,West,275,1.0,4.0,36,0.00,,,0.00,weatherlink.com 1.10,2013-04-27 20:58:00,
2013-04-27 17:13:00,56.4,30.0,30.25,North,355,1.0,7.0,36,0.00,,,0.00,weatherlink.com 1.10,2013-04-27 21:13:00,
2013-04-27 17:28:00,56.2,30.0,30.25,ENE,60,3.0,4.0,37,0.00,,,0.00,weatherlink.com 1.10,2013-04-27 21:28:00,
2013-04-27 17:43:00,57.8,29.0,30.25,SSW,199,3.0,6.0,34,0.00,,,0.00,weatherlink.com 1.10,2013-04-27 21:43:00,
2013-04-27 17:59:00,55.9,29.0,30.25,SW,221,1.0,7.0,36,0.00,,,0.00,weatherlink.com 1.10,2013-04-27 21:59:00,
2013-04-27 18:14:00,55.4,29.0,30.25,SW,219,3.0,3.0,37,0.00,,,0.00,weatherlink.com 1.10,2013-04-27 22:14:00,
2013-04-27 18:29:00,54.1,29.0,30.25,SSW,194,1.0,4.0,38,0.00,,,0.00,weatherlink.com 1.10,2013-04-27 22:29:00,
2013-04-27 18:44:00,53.0,31.0,30.25,South,184,0.0,4.0,43,0.00,,,0.00,weatherlink.com 1.10,2013-04-27 22:44:00,
2013-04-27 18:59:00,52.6,30.0,30.25,South,185,0.0,3.0,43,0.00,,,0.00,weatherlink.com 1.10,2013-04-27 22:59:00,
2013-04-27 19:14:00,52.2,31.0,30.25,South,191,2.0,5.0,44,0.00,,,0.00,weatherlink.com 1.10,2013-04-27 23:14:00,
2013-04-27 19:29:00,51.7,28.0,30.25,SSW,196,0.0,4.0,41,0.00,,,0.00,weatherlink.com 1.10,2013-04-27 23:29:00,
2013-04-27 19:44:00,51.0,31.0,30.25,SSW,198,1.0,4.0,47,0.00,,,0.00,weatherlink.com 1.10,2013-04-27 23:44:00,
2013-04-27 19:59:00,49.6,31.0,30.25,SSW,198,0.0,0.0,49,0.00,,,0.00,weatherlink.com 1.10,2013-04-27 23:59:00,
2013-04-27 20:14:00,48.4,30.0,30.25,SSW,198,0.0,0.0,50,0.00,,,0.00,weatherlink.com 1.10,2013-04-28 00:14:00,
2013-04-27 20:29:00,47.0,30.0,30.25,SSW,198,0.0,0.0,53,0.00,,,0.00,weatherlink.com 1.10,2013-04-28 00:29:00,
2013-04-27 20:44:00,45.4,30.0,30.26,SSW,198,0.0,1.0,55,0.00,,,0.00,weatherlink.com 1.10,2013-04-28 00:44:00,
2013-04-27 20:59:00,45.0,30.0,30.26,SSW,198,0.0,0.0,55,0.00,,,0.00,weatherlink.com 1.10,2013-04-28 00:59:00,
2013-04-27 21:14:00,45.4,30.0,30.26,SSW,198,0.0,0.0,56,0.00,,,0.00,weatherlink.com 1.10,2013-04-28 01:14:00,
2013-04-27 21:29:00,46.2,31.0,30.26,SSW,198,0.0,0.0,55,0.00,,,0.00,weatherlink.com 1.10,2013-04-28 01:29:00,
2013-04-27 21:44:00,47.0,30.0,30.26,SSW,198,2.0,3.0,52,0.00,,,0.00,weatherlink.com 1.10,2013-04-28 01:44:00,
2013-04-27 21:59:00,47.3,30.0,30.27,SSW,198,0.0,2.0,52,0.00,,,0.00,weatherlink.com 1.10,2013-04-28 01:59:00,
2013-04-27 22:14:00,47.0,30.0,30.26,SSW,198,0.0,0.0,52,0.00,,,0.00,weatherlink.com 1.10,2013-04-28 02:14:00,
2013-04-27 22:29:00,46.0,30.0,30.26,SSW,199,3.0,3.0,53,0.00,,,0.00,weatherlink.com 1.10,2013-04-28 02:29:00,
2013-04-27 22:44:00,45.6,29.0,30.27,West,274,1.0,3.0,53,0.00,,,0.00,weatherlink.com 1.10,2013-04-28 02:44:00,
2013-04-27 22:59:00,45.5,29.0,30.26,West,277,0.0,2.0,53,0.00,,,0.00,weatherlink.com 1.10,2013-04-28 02:59:00,
2013-04-27 23:14:00,46.1,30.0,30.26,West,277,0.0,3.0,54,0.00,,,0.00,weatherlink.com 1.10,2013-04-28 03:14:00,
2013-04-27 23:29:00,45.9,31.0,30.26,West,277,0.0,2.0,56,0.00,,,0.00,weatherlink.com 1.10,2013-04-28 03:29:00,
2013-04-27 23:44:00,44.3,29.0,30.26,West,277,0.0,0.0,56,0.00,,,0.00,weatherlink.com 1.10,2013-04-28 03:44:00,
2013-04-27 23:59:00,43.5,30.0,30.26,West,277,0.0,0.0,59,0.00,,,0.00,weatherlink.com 1.10,2013-04-28 03:59:00,